Location: Aalen
(48.8330°N, 10.1000°E)
Time: 16:32:39
(UTC+02:00)

UWE-3 - Visible Passes

Search period start: 01 April 2023 00:00
Search period end: 11 April 2023 00:00
Orbit: 579 x 670 km, 97.7° (Epoch: 31 March)

Date Brightness Start Highest point End Pass type
(mag) Time Alt. Az. Time Alt. Az. Time Alt. Az.
01 Apr ? 03:34:53 10° NE 03:38:42 27° E 03:38:53 27° E visible
01 Apr ? 05:10:54 10° N 05:14:59 36° WNW 05:16:09 31° W visible
02 Apr ? 03:53:18 10° NNE 03:57:32 40° E 03:57:54 40° ESE visible
02 Apr ? 05:29:55 10° N 05:33:33 25° WNW 05:35:10 20° W visible
03 Apr ? 04:11:52 10° NNE 04:16:18 62° E 04:16:54 55° SE visible
03 Apr ? 05:49:05 10° NNW 05:52:02 18° WNW 05:54:10 13° W visible
04 Apr ? 02:56:41 10° ENE 02:58:06 11° E 02:58:38 11° E visible
04 Apr ? 04:30:33 10° NNE 04:34:59 86° WNW 04:35:53 56° SSW visible
04 Apr ? 06:08:38 10° NNW 06:10:28 12° NW 06:12:17 10° W visible
05 Apr ? 03:14:06 10° NE 03:17:00 17° E 03:17:36 17° E visible
05 Apr ? 04:49:18 10° N 04:53:38 56° WNW 04:54:52 40° SW visible
06 Apr ? 03:32:12 10° NE 03:35:52 25° E 03:36:34 24° ESE visible
06 Apr ? 05:08:07 10° N 05:12:12 37° WNW 05:13:50 27° WSW visible
07 Apr ? 03:50:33 10° NNE 03:54:38 38° E 03:55:31 34° SE visible
07 Apr ? 05:27:05 10° N 05:30:42 26° WNW 05:32:47 18° WSW visible
08 Apr ? 04:09:02 10° NNE 04:13:21 58° E 04:14:27 43° SSE visible
08 Apr ? 05:46:10 10° NNW 05:49:08 18° WNW 05:51:43 11° W visible
09 Apr ? 02:54:23 10° ENE 02:55:04 10° E 02:55:44 10° E visible
09 Apr ? 04:27:37 10° NNE 04:32:00 90° ESE 04:33:22 43° SSW visible
09 Apr ? 06:05:37 10° NNW 06:07:31 13° WNW 06:09:24 10° W visible
10 Apr ? 03:11:16 10° NE 03:13:56 16° E 03:15:02 15° ESE visible
10 Apr ? 04:46:17 10° N 04:50:35 59° WNW 04:52:17 33° SW visible
